This is the latest recevied weather packets stored in our database for station/object DM8MH-13. If no packets are shown the sender has not sent any weather packets the latest 1 day(s).
| Time | Temp. | Humidity | Pressure | Rain* | Wind** | Luminosity | Snow |
|---|---|---|---|---|---|---|---|
| 1778044871 | 12.22° C | 93% | 1003.9 hPa | 0 mm | - | 62 W/m² | - |
| 1778044271 | 12.22° C | 93% | 1003.8 hPa | 0 mm | - | 58 W/m² | - |
| 1778043670 | 12.22° C | 93% | 1003.8 hPa | 0 mm | - | 61 W/m² | - |
| 1778043071 | 12.22° C | 93% | 1003.9 hPa | 0 mm | - | 33 W/m² | - |
| 1778042471 | 12.22° C | 93% | 1003.9 hPa | 0 mm | - | 15 W/m² | - |
| 1778041271 | 11.67° C | 93% | 1003.9 hPa | 0 mm | - | 5 W/m² | - |
| 1778040671 | 11.67° C | 93% | 1003.9 hPa | 0 mm | - | 0 W/m² | - |
| 1778040071 | 11.67° C | 93% | 1003.7 hPa | 0 mm | - | 0 W/m² | - |
| 1778039471 | 11.67° C | 93% | 1003.6 hPa | 0.25 mm | - | 0 W/m² | - |
| 1778038872 | 11.67° C | 93% | 1003.6 hPa | 0.51 mm | - | 0 W/m² | - |
| 1778037671 | 11.67° C | 93% | 1003.7 hPa | 0.76 mm | - | 0 W/m² | - |
| 1778037071 | 11.67° C | 93% | 1003.8 hPa | 1.02 mm | - | 0 W/m² | - |
| 1778036471 | 11.67° C | 93% | 1003.9 hPa | 1.02 mm | - | 0 W/m² | - |
| 1778035271 | 11.67° C | 93% | 1003.9 hPa | 1.02 mm | - | 0 W/m² | - |
| 1778034671 | 11.67° C | 92% | 1004.1 hPa | 1.02 mm | - | 0 W/m² | - |
| 1778034071 | 12.22° C | 92% | 1004 hPa | 1.02 mm | - | 0 W/m² | - |
| 1778032871 | 12.22° C | 93% | 1004 hPa | 1.27 mm | - | 0 W/m² | - |
| 1778032271 | 12.22° C | 93% | 1004.2 hPa | 1.52 mm | - | 0 W/m² | - |
| 1778031670 | 12.22° C | 92% | 1004.4 hPa | 2.03 mm | - | 0 W/m² | - |
| 1778031070 | 12.22° C | 92% | 1004.4 hPa | 2.54 mm | - | 0 W/m² | - |
| 1778030470 | 12.22° C | 92% | 1004.5 hPa | 4.57 mm | - | 0 W/m² | - |
| 1778027471 | 12.78° C | 92% | 1004.4 hPa | 5.59 mm | - | 0 W/m² | - |
| 1778025071 | 13.33° C | 92% | 1004.7 hPa | 2.79 mm | - | 0 W/m² | - |
| 1778018470 | 14.44° C | 91% | 1005.2 hPa | 2.03 mm | - | 0 W/m² | - |
| 1778017271 | 14.44° C | 91% | 1005.4 hPa | 1.78 mm | - | 0 W/m² | - |
* Rain latest hour (hover to see other rain measurements)
** Current wind speed in m/s (hover to see current wind gust speed)